When you browse on this site, cookies collect data to enhance your experience and personalize the content and advertising you see.
Visit our Privacy Policy to learn more. By continuing to use the site, you agree to this use of cookies and data.
  • Em Portugal
  • Lista de países
  • Para 7 dias
  • Temperatura da água
  • Mapa do tempo
  • Widgets de tempo
  • user-avatar
    Iniciar Sessão

    Previsão horária em Sidnei

    Hoje, 24 Fevereiro, Segunda-feira

    Tempo Temperatura Precipitação Vento Pressão Humidade
    00:00 +21°C° 0 mm 3 m/s 765 mmHg 80%
    01:00 +20°C° 0 mm 3 m/s 765 mmHg 82%
    02:00 +20°C° 0 mm 2 m/s 765 mmHg 84%
    03:00 +19°C° 0 mm 2 m/s 764 mmHg 85%
    04:00 +19°C° 0 mm 2 m/s 764 mmHg 87%
    05:00 +20°C° 0 mm 2 m/s 765 mmHg 84%
    06:00 +20°C° 0 mm 2 m/s 765 mmHg 81%
    07:00 +21°C° 0 mm 2 m/s 765 mmHg 78%
    08:00 +24°C° 0 mm 2 m/s 765 mmHg 71%
    09:00 +26°C° 0 mm 2 m/s 765 mmHg 63%
    10:00 +27°C° 0 mm 2 m/s 764 mmHg 55%
    11:00 +28°C° 0 mm 2 m/s 764 mmHg 52%
    12:00 +29°C° 0 mm 3 m/s 764 mmHg 49%
    13:00 +30°C° 0 mm 4 m/s 763 mmHg 45%
    14:00 +30°C° 0 mm 4 m/s 763 mmHg 47%
    15:00 +29°C° 0 mm 5 m/s 762 mmHg 49%
    16:00 +29°C° 0 mm 6 m/s 761 mmHg 50%
    17:00 +27°C° 0 mm 5 m/s 762 mmHg 59%
    18:00 +26°C° 0 mm 5 m/s 762 mmHg 68%
    19:00 +23°C° 0 mm 5 m/s 763 mmHg 76%
    20:00 +23°C° 0 mm 4 m/s 763 mmHg 78%
    21:00 +22°C° 0 mm 4 m/s 763 mmHg 79%
    22:00 +22°C° 0 mm 4 m/s 763 mmHg 80%
    23:00 +21°C° 0 mm 3 m/s 763 mmHg 81%

    Amanhã, 25 Fevereiro, Terça-feira

    Tempo Temperatura Precipitação Vento Pressão Humidade
    00:00 +21°C° 0 mm 3 m/s 763 mmHg 82%
    01:00 +20°C° 0 mm 2 m/s 762 mmHg 83%
    02:00 +20°C° 0 mm 2 m/s 762 mmHg 84%
    03:00 +21°C° 0 mm 1 m/s 762 mmHg 85%
    04:00 +21°C° 0 mm 1 m/s 762 mmHg 86%
    05:00 +21°C° 0 mm 1 m/s 762 mmHg 85%
    06:00 +22°C° 0 mm 1 m/s 762 mmHg 83%
    07:00 +22°C° 0 mm 1 m/s 762 mmHg 81%
    08:00 +24°C° 0 mm 1 m/s 762 mmHg 72%
    09:00 +26°C° 0 mm 1 m/s 762 mmHg 62%
    10:00 +29°C° 0 mm 2 m/s 762 mmHg 53%
    11:00 +30°C° 0 mm 2 m/s 761 mmHg 49%
    12:00 +31°C° 0 mm 3 m/s 760 mmHg 45%
    13:00 +33°C° 0 mm 4 m/s 760 mmHg 42%
    14:00 +32°C° 0 mm 5 m/s 759 mmHg 45%
    15:00 +30°C° 0 mm 5 m/s 758 mmHg 49%
    16:00 +30°C° 0 mm 6 m/s 758 mmHg 52%
    17:00 +28°C° 0 mm 6 m/s 758 mmHg 60%
    18:00 +27°C° 0 mm 6 m/s 758 mmHg 68%
    19:00 +24°C° 0 mm 6 m/s 758 mmHg 76%
    20:00 +25°C° 0 mm 5 m/s 758 mmHg 77%
    21:00 +25°C° 0 mm 5 m/s 758 mmHg 79%
    22:00 +23°C° 0 mm 5 m/s 758 mmHg 81%
    23:00 +23°C° 0 mm 4 m/s 758 mmHg 82%

    Depois de amanhã, 26 Fevereiro, Quarta-feira

    Tempo Temperatura Precipitação Vento Pressão Humidade
    00:00 +24°C° 0 mm 3 m/s 757 mmHg 83%
    01:00 +22°C° 0 mm 3 m/s 757 mmHg 84%
    02:00 +22°C° 0 mm 3 m/s 756 mmHg 85%
    03:00 +22°C° 0 mm 3 m/s 756 mmHg 85%
    04:00 +21°C° 0 mm 3 m/s 756 mmHg 86%
    05:00 +22°C° 0 mm 3 m/s 756 mmHg 81%
    06:00 +24°C° 0 mm 3 m/s 756 mmHg 77%
    07:00 +24°C° 0 mm 3 m/s 756 mmHg 72%
    08:00 +27°C° 0 mm 3 m/s 755 mmHg 63%
    09:00 +29°C° 0 mm 3 m/s 755 mmHg 54%
    10:00 +33°C° 0 mm 4 m/s 754 mmHg 44%
    11:00 +35°C° 0 mm 4 m/s 754 mmHg 39%
    12:00 +36°C° 0 mm 4 m/s 753 mmHg 34%
    13:00 +38°C° 0 mm 4 m/s 753 mmHg 29%
    14:00 +37°C° 0 mm 4 m/s 752 mmHg 31%
    15:00 +36°C° 0 mm 4 m/s 752 mmHg 33%
    16:00 +35°C° 0 mm 4 m/s 752 mmHg 35%
    17:00 +30°C° 0 mm 7 m/s 753 mmHg 48%
    18:00 +27°C° 0 mm 10 m/s 754 mmHg 61%
    19:00 +22°C° 0 mm 13 m/s 754 mmHg 74%
    20:00 +21°C° 0 mm 11 m/s 756 mmHg 73%
    21:00 +21°C° 0 mm 10 m/s 757 mmHg 72%
    22:00 +19°C° 0 mm 9 m/s 758 mmHg 71%
    23:00 +20°C° 0 mm 8 m/s 758 mmHg 68%

    27 Fevereiro, Quinta-feira

    Tempo Temperatura Precipitação Vento Pressão Humidade
    00:00 +20°C° 0 mm 8 m/s 758 mmHg 66%
    01:00 +20°C° 0 mm 7 m/s 758 mmHg 64%
    02:00 +20°C° 0 mm 7 m/s 758 mmHg 63%
    03:00 +20°C° 0 mm 6 m/s 758 mmHg 62%
    04:00 +19°C° 0 mm 6 m/s 758 mmHg 62%
    05:00 +19°C° 0 mm 5 m/s 759 mmHg 62%
    06:00 +19°C° 0 mm 5 m/s 759 mmHg 62%
    07:00 +19°C° 0 mm 4 m/s 759 mmHg 62%
    08:00 +20°C° 0 mm 4 m/s 759 mmHg 60%
    09:00 +21°C° 0 mm 3 m/s 759 mmHg 58%
    10:00 +21°C° 0 mm 3 m/s 760 mmHg 57%
    11:00 +23°C° 0 mm 2 m/s 759 mmHg 57%
    12:00 +23°C° 0 mm 2 m/s 759 mmHg 57%
    13:00 +23°C° 0 mm 2 m/s 758 mmHg 57%
    14:00 +24°C° 0 mm 3 m/s 758 mmHg 57%
    15:00 +24°C° 0 mm 3 m/s 757 mmHg 56%
    16:00 +25°C° 0 mm 4 m/s 757 mmHg 56%
    17:00 +23°C° 0 mm 4 m/s 757 mmHg 61%
    18:00 +22°C° 0 mm 3 m/s 758 mmHg 66%
    19:00 +21°C° 0 mm 3 m/s 758 mmHg 71%
    20:00 +21°C° 0 mm 3 m/s 758 mmHg 74%
    21:00 +20°C° 0 mm 3 m/s 759 mmHg 76%
    22:00 +20°C° 0 mm 3 m/s 759 mmHg 78%
    23:00 +20°C° 0 mm 3 m/s 759 mmHg 81%

    28 Fevereiro, Sexta-feira

    Tempo Temperatura Precipitação Vento Pressão Humidade
    00:00 +19°C° 0 mm 2 m/s 758 mmHg 84%
    01:00 +19°C° 0 mm 2 m/s 758 mmHg 87%
    02:00 +19°C° 0 mm 2 m/s 758 mmHg 87%
    03:00 +19°C° 0 mm 2 m/s 758 mmHg 88%
    04:00 +20°C° 0 mm 1 m/s 758 mmHg 88%
    05:00 +20°C° 0 mm 1 m/s 759 mmHg 86%
    06:00 +21°C° 0 mm 1 m/s 759 mmHg 84%
    07:00 +21°C° 0 mm 1 m/s 759 mmHg 82%
    08:00 +23°C° 0 mm 1 m/s 759 mmHg 72%
    09:00 +26°C° 0 mm 1 m/s 759 mmHg 63%
    10:00 +28°C° 0 mm 1 m/s 760 mmHg 53%
    11:00 +28°C° 0.1 mm 2 m/s 759 mmHg 54%
    12:00 +28°C° 0.1 mm 3 m/s 759 mmHg 55%
    13:00 +28°C° 0.1 mm 4 m/s 759 mmHg 57%
    14:00 +27°C° 0.1 mm 4 m/s 759 mmHg 60%
    15:00 +27°C° 0.1 mm 4 m/s 759 mmHg 63%
    16:00 +26°C° 0.1 mm 4 m/s 759 mmHg 66%
    17:00 +25°C° 0 mm 4 m/s 759 mmHg 69%
    18:00 +24°C° 0 mm 3 m/s 760 mmHg 72%
    19:00 +24°C° 0 mm 3 m/s 760 mmHg 75%
    20:00 +22°C° 0.1 mm 3 m/s 761 mmHg 76%
    21:00 +22°C° 0.1 mm 3 m/s 761 mmHg 77%
    22:00 +23°C° 0.1 mm 2 m/s 762 mmHg 78%
    23:00 +22°C° 0.1 mm 3 m/s 762 mmHg 79%

    29 Fevereiro, Sábado

    Tempo Temperatura Precipitação Vento Pressão Humidade
    00:00 +22°C° 0.1 mm 3 m/s 762 mmHg 79%
    01:00 +22°C° 0.1 mm 3 m/s 762 mmHg 80%
    02:00 +21°C° 0 mm 2 m/s 762 mmHg 82%
    03:00 +21°C° 0 mm 2 m/s 762 mmHg 83%
    04:00 +20°C° 0 mm 2 m/s 762 mmHg 84%
    05:00 +22°C° 0 mm 1 m/s 762 mmHg 84%
    06:00 +22°C° 0 mm 1 m/s 763 mmHg 83%
    07:00 +22°C° 0 mm 1 m/s 763 mmHg 82%
    08:00 +24°C° 0.1 mm 1 m/s 763 mmHg 75%
    09:00 +25°C° 0.1 mm 1 m/s 763 mmHg 68%
    10:00 +27°C° 0.1 mm 1 m/s 763 mmHg 60%
    11:00 +27°C° 0 mm 2 m/s 763 mmHg 56%
    12:00 +28°C° 0 mm 4 m/s 763 mmHg 51%
    13:00 +29°C° 0 mm 5 m/s 762 mmHg 47%
    14:00 +29°C° 0 mm 5 m/s 762 mmHg 47%
    15:00 +28°C° 0 mm 5 m/s 761 mmHg 47%
    16:00 +28°C° 0 mm 6 m/s 761 mmHg 47%
    17:00 +27°C° 0 mm 6 m/s 761 mmHg 54%
    18:00 +24°C° 0 mm 6 m/s 761 mmHg 60%
    19:00 +23°C° 0 mm 6 m/s 762 mmHg 66%
    20:00 +22°C° 0 mm 6 m/s 762 mmHg 69%
    21:00 +22°C° 0 mm 5 m/s 763 mmHg 71%
    22:00 +21°C° 0 mm 5 m/s 763 mmHg 74%
    23:00 +21°C° 0 mm 4 m/s 763 mmHg 76%
    Mostrar mais